,,PressureMeas_1m,,PRMeasQMR101_1,,RHStat155_1m_1,,SRMeasQMS101R_1m,,TAStat155_1m_1,,GenWind_1,,GenWind_1,
2017-05-17, 07:00:06,VALID,916.412,VALID,0.0,VALID,94.102,VALID,141.988,VALID,20.411,VALID,144.0,VALID,0.429,
2017-05-17, 07:01:06,VALID,916.418,VALID,0.0,VALID,94.121,VALID,145.906,VALID,20.484,VALID,120.0,VALID,0.551,
2017-05-17, 07:02:06,VALID,916.417,VALID,0.0,VALID,94.145,VALID,149.288,VALID,20.602,VALID,107.0,VALID,0.521,
2017-05-17, 07:03:06,VALID,916.432,VALID,0.0,VALID,94.211,VALID,152.199,VALID,20.729,VALID,140.0,VALID,0.162,
2017-05-17, 07:04:06,VALID,916.459,VALID,0.0,VALID,93.365,VALID,155.102,VALID,20.804,VALID,131.0,VALID,0.619,
2017-05-17, 07:05:06,VALID,916.463,VALID,0.0,VALID,93.232,VALID,158.359,VALID,20.887,VALID,129.0,VALID,0.605,
2017-05-17, 07:06:06,VALID,916.469,VALID,0.0,VALID,92.555,VALID,160.969,VALID,20.949,VALID,129.0,VALID,0.693,
2017-05-17, 07:07:06,VALID,916.49,VALID,0.0,VALID,92.143,VALID,164.216,VALID,21.012,VALID,133.0,VALID,0.918,
2017-05-17, 07:08:06,VALID,916.497,VALID,0.0,VALID,92.566,VALID,167.144,VALID,21.082,VALID,113.0,VALID,0.711,
2017-05-17, 07:09:06,VALID,916.488,VALID,0.0,VALID,91.837,VALID,169.81,VALID,21.151,VALID,140.0,VALID,0.977,
2017-05-17, 07:10:06,VALID,916.491,VALID,0.0,VALID,91.231,VALID,173.488,VALID,21.189,VALID,137.0,VALID,0.99,
2017-05-17, 07:11:06,VALID,916.468,VALID,0.0,VALID,90.927,VALID,176.181,VALID,21.215,VALID,160.0,VALID,1.195,
2017-05-17, 07:12:06,VALID,916.465,VALID,0.0,VALID,90.007,VALID,178.909,VALID,21.189,VALID,147.0,VALID,1.396,
2017-05-17, 07:13:06,VALID,916.45,VALID,0.0,VALID,89.869,VALID,182.352,VALID,21.11,VALID,151.0,VALID,1.319,
2017-05-17, 07:14:06,VALID,916.416,VALID,0.0,VALID,90.712,VALID,185.575,VALID,21.073,VALID,162.0,VALID,1.135,
2017-05-17, 07:15:06,VALID,916.403,VALID,0.0,VALID,90.775,VALID,189.005,VALID,21.057,VALID,149.0,VALID,1.239,
2017-05-17, 07:16:06,VALID,916.388,VALID,0.0,VALID,90.903,VALID,191.646,VALID,21.031,VALID,149.0,VALID,1.524,
2017-05-17, 07:17:06,VALID,916.393,VALID,0.0,VALID,90.654,VALID,195.069,VALID,20.977,VALID,144.0,VALID,1.587,
2017-05-17, 07:18:06,VALID,916.39,VALID,0.0,VALID,90.785,VALID,198.165,VALID,20.946,VALID,149.0,VALID,1.736,
2017-05-17, 07:19:06,VALID,916.39,VALID,0.0,VALID,90.688,VALID,200.876,VALID,20.925,VALID,150.0,VALID,1.672,
2017-05-17, 07:20:06,VALID,916.391,VALID,0.0,VALID,91.532,VALID,204.003,VALID,20.917,VALID,148.0,VALID,1.533,
2017-05-17, 07:21:06,VALID,916.417,VALID,0.0,VALID,91.815,VALID,207.257,VALID,20.903,VALID,143.0,VALID,1.548,
2017-05-17, 07:22:06,VALID,916.432,VALID,0.0,VALID,91.764,VALID,210.902,VALID,20.859,VALID,155.0,VALID,1.533,
2017-05-17, 07:23:06,VALID,916.462,VALID,0.0,VALID,92.042,VALID,215.058,VALID,20.837,VALID,144.0,VALID,1.446,
2017-05-17, 07:24:06,VALID,916.489,VALID,0.0,VALID,92.547,VALID,219.184,VALID,20.826,VALID,146.0,VALID,1.317,
2017-05-17, 07:25:06,VALID,916.501,VALID,0.0,VALID,92.873,VALID,223.287,VALID,20.861,VALID,150.0,VALID,1.434,
2017-05-17, 07:26:06,VALID,916.526,VALID,0.0,VALID,92.835,VALID,225.684,VALID,20.906,VALID,151.0,VALID,1.449,
2017-05-17, 07:27:06,VALID,916.548,VALID,0.0,VALID,92.457,VALID,228.021,VALID,20.915,VALID,149.0,VALID,1.35,
2017-05-17, 07:28:06,VALID,916.571,VALID,0.0,VALID,92.71,VALID,230.724,VALID,20.966,VALID,150.0,VALID,1.136,
2017-05-17, 07:29:06,VALID,916.604,VALID,0.0,VALID,92.418,VALID,235.164,VALID,21.067,VALID,144.0,VALID,1.049,
2017-05-17, 07:30:06,VALID,916.637,VALID,0.0,VALID,91.648,VALID,239.105,VALID,21.135,VALID,144.0,VALID,1.397,
2017-05-17, 07:31:06,VALID,916.657,VALID,0.0,VALID,91.524,VALID,242.336,VALID,21.194,VALID,147.0,VALID,1.568,
2017-05-17, 07:32:06,VALID,916.681,VALID,0.0,VALID,90.714,VALID,245.186,VALID,21.218,VALID,149.0,VALID,1.655,
2017-05-17, 07:33:06,VALID,916.696,VALID,0.0,VALID,91.237,VALID,249.877,VALID,21.252,VALID,144.0,VALID,1.598,
2017-05-17, 07:34:06,VALID,916.701,VALID,0.0,VALID,91.549,VALID,252.541,VALID,21.314,VALID,156.0,VALID,1.769,
2017-05-17, 07:35:06,VALID,916.712,VALID,0.0,VALID,90.4,VALID,253.352,VALID,21.321,VALID,149.0,VALID,2.183,
2017-05-17, 07:36:06,VALID,916.732,VALID,0.0,VALID,90.449,VALID,257.509,VALID,21.276,VALID,149.0,VALID,2.086,
2017-05-17, 07:37:06,VALID,916.749,VALID,0.0,VALID,90.299,VALID,260.476,VALID,21.215,VALID,150.0,VALID,1.878,
2017-05-17, 07:38:06,VALID,916.754,VALID,0.0,VALID,90.77,VALID,265.316,VALID,21.152,VALID,150.0,VALID,1.62,
2017-05-17, 07:39:06,VALID,916.774,VALID,0.0,VALID,91.272,VALID,265.809,VALID,21.152,VALID,146.0,VALID,1.23,
2017-05-17, 07:40:06,VALID,916.763,VALID,0.0,VALID,91.912,VALID,264.181,VALID,21.229,VALID,145.0,VALID,1.318,
2017-05-17, 07:41:06,VALID,916.77,VALID,0.0,VALID,92.401,VALID,269.347,VALID,21.374,VALID,145.0,VALID,1.001,
2017-05-17, 07:42:06,VALID,916.774,VALID,0.0,VALID,90.907,VALID,278.059,VALID,21.435,VALID,145.0,VALID,1.63,
2017-05-17, 07:43:06,VALID,916.773,VALID,0.0,VALID,90.944,VALID,284.221,VALID,21.431,VALID,147.0,VALID,1.535,
2017-05-17, 07:44:06,VALID,916.768,VALID,0.0,VALID,91.545,VALID,290.967,VALID,21.475,VALID,147.0,VALID,1.648,
2017-05-17, 07:45:06,VALID,916.777,VALID,0.0,VALID,90.622,VALID,295.395,VALID,21.52,VALID,147.0,VALID,1.79,
2017-05-17, 07:46:06,VALID,916.785,VALID,0.0,VALID,90.214,VALID,297.202,VALID,21.51,VALID,151.0,VALID,1.814,
2017-05-17, 07:47:06,VALID,916.776,VALID,0.0,VALID,89.983,VALID,298.501,VALID,21.552,VALID,146.0,VALID,1.738,
2017-05-17, 07:48:06,VALID,916.787,VALID,0.0,VALID,90.651,VALID,299.334,VALID,21.713,VALID,152.0,VALID,1.811,
2017-05-17, 07:49:06,VALID,916.783,VALID,0.0,VALID,88.657,VALID,299.958,VALID,21.837,VALID,152.0,VALID,1.966,
2017-05-17, 07:50:06,VALID,916.805,VALID,0.0,VALID,88.462,VALID,305.082,VALID,21.919,VALID,156.0,VALID,1.675,
2017-05-17, 07:51:06,VALID,916.81,VALID,0.0,VALID,88.65,VALID,310.075,VALID,22.031,VALID,151.0,VALID,1.593,
2017-05-17, 07:52:06,VALID,916.827,VALID,0.0,VALID,88.741,VALID,316.202,VALID,22.138,VALID,149.0,VALID,1.654,
2017-05-17, 07:53:06,VALID,916.84,VALID,0.0,VALID,87.699,VALID,318.117,VALID,22.13,VALID,154.0,VALID,2.18,
2017-05-17, 07:54:06,VALID,916.844,VALID,0.0,VALID,88.207,VALID,318.311,VALID,21.994,VALID,154.0,VALID,2.048,
2017-05-17, 07:55:06,VALID,916.858,VALID,0.0,VALID,89.315,VALID,318.683,VALID,21.933,VALID,158.0,VALID,1.83,
2017-05-17, 07:56:06,VALID,916.868,VALID,0.0,VALID,89.803,VALID,321.967,VALID,21.967,VALID,152.0,VALID,1.679,
2017-05-17, 07:57:06,VALID,916.876,VALID,0.0,VALID,89.638,VALID,328.854,VALID,21.974,VALID,151.0,VALID,1.296,
2017-05-17, 07:58:06,VALID,916.885,VALID,0.0,VALID,89.37,VALID,333.629,VALID,22.017,VALID,142.0,VALID,1.58,
2017-05-17, 07:59:06,VALID,916.87,VALID,0.0,VALID,90.29,VALID,336.533,VALID,22.105,VALID,148.0,VALID,1.452,
2017-05-17, 08:00:06,VALID,916.872,VALID,0.0,VALID,88.986,VALID,341.798,VALID,22.164,VALID,153.0,VALID,1.593,
2017-05-17, 08:01:06,VALID,916.886,VALID,0.0,VALID,88.274,VALID,345.452,VALID,22.208,VALID,152.0,VALID,1.85,
2017-05-17, 08:02:06,VALID,916.884,VALID,0.0,VALID,88.203,VALID,351.894,VALID,22.243,VALID,150.0,VALID,1.745,
2017-05-17, 08:03:06,VALID,916.894,VALID,0.0,VALID,87.873,VALID,358.395,VALID,22.333,VALID,156.0,VALID,1.675,
2017-05-17, 08:04:06,VALID,916.934,VALID,0.0,VALID,87.183,VALID,363.471,VALID,22.514,VALID,146.0,VALID,1.407,
2017-05-17, 08:05:06,VALID,916.934,VALID,0.0,VALID,87.019,VALID,367.258,VALID,22.723,VALID,169.0,VALID,0.749,
2017-05-17, 08:06:06,VALID,916.941,VALID,0.0,VALID,86.298,VALID,370.108,VALID,22.905,VALID,158.0,VALID,1.465,
2017-05-17, 08:07:06,VALID,916.963,VALID,0.0,VALID,85.346,VALID,372.88,VALID,22.987,VALID,153.0,VALID,1.219,
2017-05-17, 08:08:06,VALID,916.969,VALID,0.0,VALID,85.872,VALID,376.802,VALID,23.073,VALID,155.0,VALID,1.31,
2017-05-17, 08:09:06,VALID,916.976,VALID,0.0,VALID,84.95,VALID,380.837,VALID,23.111,VALID,158.0,VALID,1.589,
2017-05-17, 08:10:06,VALID,916.993,VALID,0.0,VALID,84.185,VALID,384.88,VALID,23.139,VALID,148.0,VALID,1.95,
2017-05-17, 08:11:06,VALID,917.013,VALID,0.0,VALID,84.914,VALID,392.013,VALID,23.188,VALID,155.0,VALID,1.818,
2017-05-17, 08:12:06,VALID,917.021,VALID,0.0,VALID,84.316,VALID,395.194,VALID,23.204,VALID,153.0,VALID,1.782,
2017-05-17, 08:13:06,VALID,917.033,VALID,0.0,VALID,84.274,VALID,397.632,VALID,23.174,VALID,151.0,VALID,1.979,
2017-05-17, 08:14:06,VALID,917.052,VALID,0.0,VALID,82.899,VALID,401.485,VALID,23.179,VALID,154.0,VALID,1.71,
2017-05-17, 08:15:06,VALID,917.07,VALID,0.0,VALID,83.821,VALID,406.951,VALID,23.243,VALID,150.0,VALID,1.933,
2017-05-17, 08:16:06,VALID,917.096,VALID,0.0,VALID,83.733,VALID,410.843,VALID,23.316,VALID,155.0,VALID,1.75,
2017-05-17, 08:17:06,VALID,917.107,VALID,0.0,VALID,84.476,VALID,415.37,VALID,23.389,VALID,151.0,VALID,1.969,
2017-05-17, 08:18:06,VALID,917.122,VALID,0.0,VALID,83.272,VALID,416.601,VALID,23.463,VALID,153.0,VALID,1.945,
2017-05-17, 08:19:06,VALID,917.109,VALID,0.0,VALID,83.043,VALID,420.52,VALID,23.459,VALID,153.0,VALID,1.986,
2017-05-17, 08:20:06,VALID,917.118,VALID,0.0,VALID,82.485,VALID,424.189,VALID,23.504,VALID,152.0,VALID,1.843,
2017-05-17, 08:21:06,VALID,917.114,VALID,0.0,VALID,82.21,VALID,426.922,VALID,23.604,VALID,129.0,VALID,1.905,
2017-05-17, 08:22:06,VALID,917.117,VALID,0.0,VALID,81.772,VALID,430.995,VALID,23.7,VALID,150.0,VALID,2.067,
2017-05-17, 08:23:06,VALID,917.12,VALID,0.0,VALID,81.835,VALID,434.206,VALID,23.832,VALID,139.0,VALID,1.523,
2017-05-17, 08:24:06,VALID,917.11,VALID,0.0,VALID,81.335,VALID,438.295,VALID,23.965,VALID,137.0,VALID,1.754,
2017-05-17, 08:25:06,VALID,917.126,VALID,0.0,VALID,81.489,VALID,443.666,VALID,24.004,VALID,145.0,VALID,1.905,
2017-05-17, 08:26:06,VALID,917.127,VALID,0.0,VALID,79.938,VALID,446.289,VALID,24.021,VALID,151.0,VALID,1.84,
2017-05-17, 08:27:06,VALID,917.126,VALID,0.0,VALID,80.143,VALID,452.011,VALID,24.082,VALID,129.0,VALID,2.234,
2017-05-17, 08:28:06,VALID,917.145,VALID,0.0,VALID,79.244,VALID,455.996,VALID,24.177,VALID,120.0,VALID,1.909,
2017-05-17, 08:29:06,VALID,917.127,VALID,0.0,VALID,78.684,VALID,459.375,VALID,24.34,VALID,117.0,VALID,1.307,
2017-05-17, 08:30:06,VALID,917.148,VALID,0.0,VALID,79.132,VALID,461.098,VALID,24.451,VALID,140.0,VALID,1.739,
2017-05-17, 08:31:06,VALID,917.139,VALID,0.0,VALID,78.43,VALID,465.276,VALID,24.453,VALID,137.0,VALID,1.498,
2017-05-17, 08:32:06,VALID,917.144,VALID,0.0,VALID,78.899,VALID,469.079,VALID,24.441,VALID,146.0,VALID,1.389,
2017-05-17, 08:33:06,VALID,917.136,VALID,0.0,VALID,79.772,VALID,472.142,VALID,24.449,VALID,126.0,VALID,2.623,
2017-05-17, 08:34:06,VALID,917.149,VALID,0.0,VALID,76.399,VALID,475.887,VALID,24.418,VALID,129.0,VALID,2.435,
2017-05-17, 08:35:06,VALID,917.144,VALID,0.0,VALID,77.183,VALID,478.868,VALID,24.298,VALID,112.0,VALID,2.065,
2017-05-17, 08:36:06,VALID,917.135,VALID,0.0,VALID,78.229,VALID,482.751,VALID,24.295,VALID,119.0,VALID,1.644,
2017-05-17, 08:37:06,VALID,917.141,VALID,0.0,VALID,79.353,VALID,486.839,VALID,24.399,VALID,110.0,VALID,1.809,
2017-05-17, 08:38:06,VALID,917.135,VALID,0.0,VALID,78.309,VALID,489.501,VALID,24.506,VALID,114.0,VALID,2.525,
2017-05-17, 08:39:06,VALID,917.143,VALID,0.0,VALID,78.851,VALID,491.99,VALID,24.528,VALID,135.0,VALID,1.928,
2017-05-17, 08:40:06,VALID,917.136,VALID,0.0,VALID,78.795,VALID,495.802,VALID,24.587,VALID,145.0,VALID,1.97,
2017-05-17, 08:41:06,VALID,917.139,VALID,0.0,VALID,78.071,VALID,499.64,VALID,24.637,VALID,130.0,VALID,2.004,
2017-05-17, 08:42:06,VALID,917.151,VALID,0.0,VALID,77.31,VALID,501.209,VALID,24.64,VALID,150.0,VALID,1.624,
2017-05-17, 08:43:06,VALID,917.151,VALID,0.0,VALID,78.911,VALID,504.817,VALID,24.669,VALID,143.0,VALID,1.872,
2017-05-17, 08:44:06,VALID,917.164,VALID,0.0,VALID,78.05,VALID,508.22,VALID,24.688,VALID,115.0,VALID,2.229,
2017-05-17, 08:45:06,VALID,917.168,VALID,0.0,VALID,77.794,VALID,513.454,VALID,24.66,VALID,103.0,VALID,2.406,
2017-05-17, 08:46:06,VALID,917.168,VALID,0.0,VALID,76.558,VALID,517.545,VALID,24.689,VALID,115.0,VALID,1.658,
2017-05-17, 08:47:06,VALID,917.18,VALID,0.0,VALID,78.408,VALID,519.324,VALID,24.732,VALID,151.0,VALID,1.97,
2017-05-17, 08:48:06,VALID,917.184,VALID,0.0,VALID,77.154,VALID,523.211,VALID,24.692,VALID,138.0,VALID,2.827,
2017-05-17, 08:49:06,VALID,917.179,VALID,0.0,VALID,77.77,VALID,526.816,VALID,24.623,VALID,139.0,VALID,2.8,
2017-05-17, 08:50:06,VALID,917.162,VALID,0.0,VALID,76.654,VALID,529.51,VALID,24.61,VALID,139.0,VALID,2.43,
2017-05-17, 08:51:06,VALID,917.144,VALID,0.0,VALID,77.335,VALID,534.084,VALID,24.663,VALID,133.0,VALID,2.132,
2017-05-17, 08:52:06,VALID,917.145,VALID,0.0,VALID,77.475,VALID,536.605,VALID,24.636,VALID,130.0,VALID,2.324,
2017-05-17, 08:53:06,VALID,917.118,VALID,0.0,VALID,75.791,VALID,540.749,VALID,24.591,VALID,100.0,VALID,1.638,
2017-05-17, 08:54:06,VALID,917.117,VALID,0.0,VALID,78.865,VALID,544.713,VALID,24.666,VALID,138.0,VALID,1.446,
2017-05-17, 08:55:06,VALID,917.113,VALID,0.0,VALID,80.221,VALID,547.319,VALID,25.001,VALID,108.0,VALID,1.55,
2017-05-17, 08:56:06,VALID,917.125,VALID,0.0,VALID,76.638,VALID,550.802,VALID,25.155,VALID,95.0,VALID,2.02,
2017-05-17, 08:57:06,VALID,917.144,VALID,0.0,VALID,77.312,VALID,553.263,VALID,25.058,VALID,126.0,VALID,1.895,
2017-05-17, 08:58:06,VALID,917.132,VALID,0.0,VALID,74.335,VALID,555.532,VALID,25.068,VALID,150.0,VALID,1.853,
2017-05-17, 08:59:06,VALID,917.141,VALID,0.0,VALID,76.353,VALID,559.398,VALID,25.075,VALID,149.0,VALID,2.632,
2017-05-17, 09:00:06,VALID,917.179,VALID,0.0,VALID,76.082,VALID,562.239,VALID,24.925,VALID,136.0,VALID,2.683,
2017-05-17, 09:01:06,VALID,917.189,VALID,0.0,VALID,76.686,VALID,564.183,VALID,24.862,VALID,102.0,VALID,2.488,
2017-05-17, 09:02:06,VALID,917.209,VALID,0.0,VALID,76.37,VALID,566.675,VALID,24.848,VALID,125.0,VALID,2.508,
2017-05-17, 09:03:06,VALID,917.2,VALID,0.0,VALID,76.148,VALID,570.647,VALID,24.886,VALID,127.0,VALID,2.722,
2017-05-17, 09:04:06,VALID,917.201,VALID,0.0,VALID,77.062,VALID,575.83,VALID,24.978,VALID,110.0,VALID,2.426,
2017-05-17, 09:05:06,VALID,917.179,VALID,0.0,VALID,75.88,VALID,578.761,VALID,24.94,VALID,108.0,VALID,2.72,
2017-05-17, 09:06:06,VALID,917.174,VALID,0.0,VALID,75.941,VALID,583.134,VALID,24.89,VALID,128.0,VALID,2.654,
2017-05-17, 09:07:06,VALID,917.156,VALID,0.0,VALID,76.439,VALID,585.2,VALID,24.902,VALID,118.0,VALID,1.484,
2017-05-17, 09:08:06,VALID,917.151,VALID,0.0,VALID,77.327,VALID,588.05,VALID,25.13,VALID,133.0,VALID,1.599,
2017-05-17, 09:09:06,VALID,917.148,VALID,0.0,VALID,75.268,VALID,592.267,VALID,25.221,VALID,148.0,VALID,2.117,
2017-05-17, 09:10:06,VALID,917.139,VALID,0.0,VALID,75.375,VALID,595.143,VALID,25.134,VALID,161.0,VALID,1.463,
2017-05-17, 09:11:06,VALID,917.163,VALID,0.0,VALID,76.139,VALID,600.096,VALID,25.166,VALID,160.0,VALID,1.279,
2017-05-17, 09:12:06,VALID,917.177,VALID,0.0,VALID,76.25,VALID,604.513,VALID,25.3,VALID,157.0,VALID,1.921,
2017-05-17, 09:13:06,VALID,917.184,VALID,0.0,VALID,75.431,VALID,606.466,VALID,25.311,VALID,154.0,VALID,2.469,
2017-05-17, 09:14:06,VALID,917.216,VALID,0.0,VALID,75.484,VALID,611.584,VALID,25.254,VALID,159.0,VALID,1.736,
2017-05-17, 09:15:06,VALID,917.245,VALID,0.0,VALID,75.937,VALID,625.199,VALID,25.359,VALID,164.0,VALID,1.532,
2017-05-17, 09:16:06,VALID,917.259,VALID,0.0,VALID,73.998,VALID,630.039,VALID,25.462,VALID,113.0,VALID,1.268,
2017-05-17, 09:17:06,VALID,917.272,VALID,0.0,VALID,74.98,VALID,617.631,VALID,25.465,VALID,94.0,VALID,0.826,
2017-05-17, 09:18:06,VALID,917.282,VALID,0.0,VALID,77.089,VALID,628.261,VALID,25.684,VALID,117.0,VALID,1.155,
2017-05-17, 09:19:06,VALID,917.302,VALID,0.0,VALID,76.402,VALID,654.883,VALID,25.956,VALID,118.0,VALID,1.464,
2017-05-17, 09:20:06,VALID,917.301,VALID,0.0,VALID,74.227,VALID,596.003,VALID,26.091,VALID,102.0,VALID,1.181,
2017-05-17, 09:21:06,VALID,917.328,VALID,0.0,VALID,72.641,VALID,549.988,VALID,26.089,VALID,153.0,VALID,1.624,
2017-05-17, 09:22:06,VALID,917.331,VALID,0.0,VALID,71.977,VALID,479.969,VALID,25.808,VALID,155.0,VALID,1.356,
2017-05-17, 09:23:06,VALID,917.336,VALID,0.0,VALID,73.298,VALID,538.113,VALID,25.603,VALID,155.0,VALID,1.517,
2017-05-17, 09:24:06,VALID,917.316,VALID,0.0,VALID,73.779,VALID,663.733,VALID,25.495,VALID,163.0,VALID,1.112,
2017-05-17, 09:25:06,VALID,917.306,VALID,0.0,VALID,74.227,VALID,649.142,VALID,25.605,VALID,124.0,VALID,0.568,
2017-05-17, 09:26:06,VALID,917.295,VALID,0.0,VALID,74.509,VALID,563.813,VALID,25.746,VALID,149.0,VALID,1.465,
2017-05-17, 09:27:06,VALID,917.275,VALID,0.0,VALID,74.098,VALID,648.089,VALID,25.825,VALID,158.0,VALID,1.658,
2017-05-17, 09:28:06,VALID,917.288,VALID,0.0,VALID,73.358,VALID,662.212,VALID,25.728,VALID,159.0,VALID,1.447,
2017-05-17, 09:29:06,VALID,917.273,VALID,0.0,VALID,73.86,VALID,654.742,VALID,25.648,VALID,137.0,VALID,1.68,
2017-05-17, 09:30:06,VALID,917.256,VALID,0.0,VALID,74.355,VALID,665.365,VALID,25.561,VALID,156.0,VALID,1.166,
2017-05-17, 09:31:06,VALID,917.243,VALID,0.0,VALID,74.309,VALID,665.274,VALID,25.682,VALID,136.0,VALID,1.036,
2017-05-17, 09:32:06,VALID,917.214,VALID,0.0,VALID,74.234,VALID,666.86,VALID,25.723,VALID,78.0,VALID,1.534,
2017-05-17, 09:33:06,VALID,917.215,VALID,0.0,VALID,74.471,VALID,670.286,VALID,25.743,VALID,86.0,VALID,0.925,
2017-05-17, 09:34:06,VALID,917.223,VALID,0.0,VALID,75.297,VALID,673.717,VALID,25.876,VALID,104.0,VALID,1.029,
2017-05-17, 09:35:06,VALID,917.217,VALID,0.0,VALID,76.864,VALID,676.03,VALID,25.945,VALID,129.0,VALID,1.379,
2017-05-17, 09:36:06,VALID,917.215,VALID,0.0,VALID,73.935,VALID,679.621,VALID,26.057,VALID,161.0,VALID,0.758,
2017-05-17, 09:37:06,VALID,917.221,VALID,0.0,VALID,71.799,VALID,683.399,VALID,26.229,VALID,172.0,VALID,1.596,
2017-05-17, 09:38:06,VALID,917.213,VALID,0.0,VALID,72.636,VALID,685.359,VALID,26.205,VALID,139.0,VALID,1.204,
2017-05-17, 09:39:06,VALID,917.201,VALID,0.0,VALID,72.891,VALID,686.759,VALID,26.135,VALID,140.0,VALID,1.712,
2017-05-17, 09:40:06,VALID,917.198,VALID,0.0,VALID,72.357,VALID,688.892,VALID,26.02,VALID,167.0,VALID,1.28,
2017-05-17, 09:41:06,VALID,917.197,VALID,0.0,VALID,72.696,VALID,690.966,VALID,26.052,VALID,107.0,VALID,0.988,
2017-05-17, 09:42:06,VALID,917.181,VALID,0.0,VALID,72.579,VALID,695.466,VALID,25.945,VALID,104.0,VALID,1.868,
2017-05-17, 09:43:06,VALID,917.177,VALID,0.0,VALID,73.976,VALID,698.798,VALID,25.8,VALID,118.0,VALID,1.847,
2017-05-17, 09:44:06,VALID,917.172,VALID,0.0,VALID,75.468,VALID,698.915,VALID,26.013,VALID,90.0,VALID,1.555,
2017-05-17, 09:45:06,VALID,917.159,VALID,0.0,VALID,73.862,VALID,701.804,VALID,26.058,VALID,87.0,VALID,1.553,
2017-05-17, 09:46:06,VALID,917.166,VALID,0.0,VALID,72.866,VALID,705.168,VALID,26.007,VALID,92.0,VALID,1.727,
2017-05-17, 09:47:06,VALID,917.168,VALID,0.0,VALID,71.884,VALID,704.894,VALID,25.924,VALID,126.0,VALID,0.684,
2017-05-17, 09:48:06,VALID,917.168,VALID,0.0,VALID,72.698,VALID,704.192,VALID,26.084,VALID,93.0,VALID,1.597,
2017-05-17, 09:49:06,VALID,917.169,VALID,0.0,VALID,72.96,VALID,707.501,VALID,26.151,VALID,79.0,VALID,1.149,
2017-05-17, 09:50:06,VALID,917.178,VALID,0.0,VALID,70.45,VALID,712.714,VALID,26.214,VALID,54.0,VALID,0.444,
2017-05-17, 09:51:06,VALID,917.17,VALID,0.0,VALID,71.776,VALID,714.3,VALID,26.494,VALID,90.0,VALID,1.496,
2017-05-17, 09:52:06,VALID,917.174,VALID,0.0,VALID,72.402,VALID,711.271,VALID,26.454,VALID,136.0,VALID,1.064,
2017-05-17, 09:53:06,VALID,917.174,VALID,0.0,VALID,72.464,VALID,715.451,VALID,26.605,VALID,130.0,VALID,0.848,
2017-05-17, 09:54:06,VALID,917.166,VALID,0.0,VALID,71.064,VALID,718.631,VALID,26.616,VALID,93.0,VALID,2.09,
2017-05-17, 09:55:06,VALID,917.188,VALID,0.0,VALID,69.068,VALID,727.968,VALID,26.379,VALID,99.0,VALID,1.055,
2017-05-17, 09:56:06,VALID,917.158,VALID,0.0,VALID,71.085,VALID,729.757,VALID,26.361,VALID,58.0,VALID,1.062,
2017-05-17, 09:57:06,VALID,917.167,VALID,0.0,VALID,70.514,VALID,733.469,VALID,26.569,VALID,106.0,VALID,1.757,
2017-05-17, 09:58:06,VALID,917.163,VALID,0.0,VALID,70.66,VALID,736.728,VALID,26.424,VALID,96.0,VALID,0.724,
2017-05-17, 09:59:06,VALID,917.158,VALID,0.0,VALID,72.268,VALID,741.34,VALID,26.582,VALID,135.0,VALID,1.854,
2017-05-17, 10:00:06,VALID,917.147,VALID,0.0,VALID,72.36,VALID,743.585,VALID,26.786,VALID,102.0,VALID,1.57,
2017-05-17, 10:01:06,VALID,917.132,VALID,0.0,VALID,69.748,VALID,746.789,VALID,26.84,VALID,77.0,VALID,1.272,
2017-05-17, 10:02:06,VALID,917.108,VALID,0.0,VALID,68.45,VALID,748.153,VALID,26.712,VALID,83.0,VALID,1.471,
2017-05-17, 10:03:06,VALID,917.087,VALID,0.0,VALID,69.61,VALID,751.926,VALID,26.676,VALID,67.0,VALID,1.186,
2017-05-17, 10:04:06,VALID,917.076,VALID,0.0,VALID,71.252,VALID,755.576,VALID,26.751,VALID,147.0,VALID,1.59,
2017-05-17, 10:05:06,VALID,917.047,VALID,0.0,VALID,70.689,VALID,756.566,VALID,26.72,VALID,85.0,VALID,1.306,
2017-05-17, 10:06:06,VALID,917.019,VALID,0.0,VALID,68.638,VALID,760.456,VALID,26.754,VALID,56.0,VALID,1.542,
2017-05-17, 10:07:06,VALID,917.01,VALID,0.0,VALID,68.896,VALID,761.944,VALID,26.763,VALID,68.0,VALID,1.211,
2017-05-17, 10:08:06,VALID,916.998,VALID,0.0,VALID,69.37,VALID,763.342,VALID,26.882,VALID,65.0,VALID,1.882,
2017-05-17, 10:09:06,VALID,917.024,VALID,0.0,VALID,68.039,VALID,766.376,VALID,26.925,VALID,73.0,VALID,1.54,
2017-05-17, 10:10:06,VALID,917.025,VALID,0.0,VALID,67.519,VALID,767.996,VALID,26.829,VALID,74.0,VALID,2.114,
2017-05-17, 10:11:06,VALID,917.042,VALID,0.0,VALID,70.717,VALID,769.165,VALID,26.899,VALID,87.0,VALID,1.703,
2017-05-17, 10:12:06,VALID,917.034,VALID,0.0,VALID,68.041,VALID,769.269,VALID,26.98,VALID,85.0,VALID,0.926,
2017-05-17, 10:13:06,VALID,917.029,VALID,0.0,VALID,67.993,VALID,769.742,VALID,27.089,VALID,49.0,VALID,1.447,
2017-05-17, 10:14:06,VALID,917.022,VALID,0.0,VALID,66.569,VALID,772.296,VALID,27.256,VALID,55.0,VALID,2.109,
2017-05-17, 10:15:06,VALID,917.019,VALID,0.0,VALID,65.657,VALID,774.127,VALID,27.279,VALID,62.0,VALID,1.622,
2017-05-17, 10:16:06,VALID,917.012,VALID,0.0,VALID,64.684,VALID,773.158,VALID,27.197,VALID,95.0,VALID,1.094,
2017-05-17, 10:17:06,VALID,916.994,VALID,0.0,VALID,68.278,VALID,777.752,VALID,27.155,VALID,81.0,VALID,1.062,
2017-05-17, 10:18:06,VALID,916.975,VALID,0.0,VALID,67.05,VALID,782.608,VALID,27.243,VALID,89.0,VALID,1.527,
2017-05-17, 10:19:06,VALID,916.957,VALID,0.0,VALID,66.96,VALID,783.357,VALID,27.033,VALID,62.0,VALID,1.55,
2017-05-17, 10:20:06,VALID,916.924,VALID,0.0,VALID,67.341,VALID,783.854,VALID,26.989,VALID,31.0,VALID,1.375,
2017-05-17, 10:21:06,VALID,916.9,VALID,0.0,VALID,67.382,VALID,789.626,VALID,27.113,VALID,41.0,VALID,0.686,
2017-05-17, 10:22:06,VALID,916.865,VALID,0.0,VALID,66.985,VALID,801.203,VALID,27.555,VALID,4.0,VALID,0.839,
2017-05-17, 10:23:06,VALID,916.838,VALID,0.0,VALID,65.746,VALID,811.176,VALID,27.936,VALID,352.0,VALID,0.96,
2017-05-17, 10:24:06,VALID,916.82,VALID,0.0,VALID,64.643,VALID,816.635,VALID,28.039,VALID,357.0,VALID,0.518,
2017-05-17, 10:25:06,VALID,916.792,VALID,0.0,VALID,66.856,VALID,820.238,VALID,28.14,VALID,67.0,VALID,0.455,
2017-05-17, 10:26:06,VALID,916.793,VALID,0.0,VALID,64.192,VALID,832.894,VALID,28.142,VALID,164.0,VALID,1.222,
2017-05-17, 10:27:06,VALID,916.776,VALID,0.0,VALID,65.274,VALID,859.721,VALID,27.897,VALID,145.0,VALID,1.129,
2017-05-17, 10:28:06,VALID,916.765,VALID,0.0,VALID,64.7,VALID,879.499,VALID,27.846,VALID,170.0,VALID,0.618,
2017-05-17, 10:29:06,VALID,916.755,VALID,0.0,VALID,69.061,VALID,890.492,VALID,27.9,VALID,147.0,VALID,2.065,
2017-05-17, 10:30:06,VALID,916.76,VALID,0.0,VALID,68.171,VALID,902.396,VALID,27.9,VALID,145.0,VALID,2.409,
2017-05-17, 10:31:06,VALID,916.761,VALID,0.0,VALID,68.092,VALID,911.164,VALID,27.623,VALID,150.0,VALID,1.834,
2017-05-17, 10:32:06,VALID,916.764,VALID,0.0,VALID,66.75,VALID,781.798,VALID,27.588,VALID,178.0,VALID,1.312,
2017-05-17, 10:33:06,VALID,916.76,VALID,0.0,VALID,66.552,VALID,856.383,VALID,27.613,VALID,143.0,VALID,1.212,
2017-05-17, 10:34:06,VALID,916.745,VALID,0.0,VALID,67.382,VALID,902.671,VALID,27.477,VALID,164.0,VALID,0.843,
2017-05-17, 10:35:06,VALID,916.745,VALID,0.0,VALID,67.736,VALID,875.542,VALID,27.665,VALID,178.0,VALID,1.081,